Über Flock 4be-23
Group: 3 satellites
Beschreibung wird geladen...
Live-Position
3D-Globus wird geladen...
Nächste Überflüge
Höhenverlauf
Altitude vs Time
uPlot chart will show altitude changes over time
Zweizeiliger Elementsatz
1 60490U 24149Y 26063.17418013 .00022202 00000-0 66114-3 0 9990
2 60490 97.3839 145.2847 0002075 284.2604 75.8409 15.34709658 86073
Epoch: 4. März 2026 •
Age: 18 hours
Aktueller Status
Höhe 488.6 km
Geschwindigkeit 7.62 km/s
Subsatellitenpunkt -81.71°S,
166.62°W
Startdatum 16. Aug. 2024
Alter 1.5 years
Typ earth observation
Technische Details
Klassifizierung Payload
Masse 5.70 kg
Trockenmasse 5.70 kg
Gesamtmasse 5.70 kg
Länge 0.30 m
Durchmesser 0.10 m
Spannweite 0.30 m
Form Box+2 pan
Hersteller PLAN
Bus-Typ Cubesat 3U
Phasenstatus In Orbit
Besitzer/Staat PLAN/US
Große Konstellationen
Loading constellations...